OK,75,28,858,75,2014-10-01T01:40:00,0,28072628,185157
OK,75,28,858,75,2014-10-01T01:45:00,0,28073075,185157
OK,75,28,858,75,2014-10-01T01:50:00,0,28073524,185157
OK,75,28,858,75,2014-10-01T01:55:00,0,28073841,185157
OK,75,28,858,75,2014-10-01T02:00:00,0,28074290,185157
OK,75,28,858,75,2014-10-01T02:05:00,0,28074732,185157
OK,75,28,858,75,2014-10-01T02:10:00,0,28075179,185157
OK,75,28,858,75,2014-10-01T02:15:00,0,28075628,185157
OK,75,28,858,75,2014-10-01T02:20:00,0,28076017,185157
OK,75,28,858,75,2014-10-01T02:25:00,0,28076460,185157
OK,75,28,858,75,2014-10-01T02:30:00,0,28076909,185157
OK,68,31,858,68,2014-10-01T02:35:00,1,28077358,185157
OK,68,31,858,68,2014-10-01T02:40:00,0,28077762,185157
OK,68,31,858,68,2014-10-01T02:45:00,0,28078210,185157
OK,68,31,858,68,2014-10-01T02:50:00,0,28078655,185157
OK,101,21,858,101,2014-10-01T02:55:00,2,28079104,185157
OK,101,21,858,101,2014-10-01T03:00:00,2,28079546,185157
OK,93,22,858,93,2014-10-01T03:05:00,0,28079995,185157
OK,93,22,858,93,2014-10-01T03:10:00,0,28080331,185157
OK,93,22,858,93,2014-10-01T03:15:00,0,28080778,185157
OK,93,22,858,93,2014-10-01T03:20:00,0,28081227,185157
OK,52,40,858,52,2014-10-01T03:25:00,1,28081674,185157
OK,52,40,858,52,2014-10-01T03:30:00,1,28082123,185157
OK,52,40,858,52,2014-10-01T03:35:00,0,28082559,185157
OK,52,40,858,52,2014-10-01T03:40:00,0,28082988,185157
OK,52,40,858,52,2014-10-01T03:45:00,0,28083437,185157
OK,52,40,858,52,2014-10-01T03:50:00,0,28083886,185157
OK,52,40,858,52,2014-10-01T03:55:00,0,28084329,185157
OK,72,29,858,72,2014-10-01T04:00:00,1,28084756,185157
OK,74,28,858,74,2014-10-01T04:05:00,2,28085201,185157
OK,77,27,858,77,2014-10-01T04:10:00,1,28085647,185157
OK,77,27,858,77,2014-10-01T04:15:00,0,28086095,185157
OK,77,27,858,77,2014-10-01T04:20:00,0,28086538,185157
OK,77,27,858,77,2014-10-01T04:25:00,0,28086986,185157
OK,77,27,858,77,2014-10-01T04:30:00,0,28087431,185157
OK,77,27,858,77,2014-10-01T04:35:00,0,28087880,185157
OK,57,37,858,57,2014-10-01T04:40:00,1,28088307,185157
OK,57,37,858,57,2014-10-01T04:45:00,3,28088753,185157
OK,78,27,858,78,2014-10-01T04:50:00,2,28089184,185157
OK,112,18,858,112,2014-10-01T04:55:00,3,28089632,185157
OK,112,18,858,112,2014-10-01T05:05:00,0,28090081,185157
OK,117,18,858,117,2014-10-01T05:10:00,2,28090874,185157
OK,121,17,858,121,2014-10-01T05:15:00,4,28091323,185157
OK,124,17,858,124,2014-10-01T05:20:00,3,28091742,185157
OK,86,24,858,86,2014-10-01T05:25:00,1,28092189,185157
OK,140,15,858,140,2014-10-01T05:30:00,3,28092634,185157
OK,140,15,858,140,2014-10-01T05:35:00,3,28093074,185157
OK,106,20,858,106,2014-10-01T05:40:00,1,28093505,185157
OK,199,10,858,199,2014-10-01T05:45:00,4,28093954,185157
OK,216,9,858,216,2014-10-01T05:50:00,3,28094368,185157
OK,108,19,858,108,2014-10-01T05:55:00,8,28094810,185157
OK,107,19,858,107,2014-10-01T06:00:00,7,28095257,185157
OK,183,11,858,183,2014-10-01T06:05:00,4,28095706,185157
OK,183,11,858,183,2014-10-01T06:10:00,4,28096120,185157
OK,110,19,858,110,2014-10-01T06:15:00,1,28096568,185157
OK,109,19,858,109,2014-10-01T06:20:00,4,28097004,185157
OK,165,12,858,165,2014-10-01T06:25:00,4,28097451,185157
OK,211,10,858,211,2014-10-01T06:30:00,3,28097900,185157
OK,101,21,858,101,2014-10-01T06:35:00,1,28098339,185157
OK,110,19,858,110,2014-10-01T06:40:00,1,28098782,185157
OK,110,19,858,110,2014-10-01T06:45:00,1,28099229,185157
OK,110,19,858,110,2014-10-01T06:50:00,1,28099574,185157
OK,110,19,858,110,2014-10-01T06:55:00,4,28100021,185157
OK,109,19,858,109,2014-10-01T07:00:00,4,28100330,185157
OK,108,19,858,108,2014-10-01T07:05:00,1,28100777,185157
OK,108,19,858,108,2014-10-01T07:10:00,0,28101149,185157
OK,122,17,858,122,2014-10-01T07:15:00,5,28101597,185157
OK,126,16,858,126,2014-10-01T07:20:00,6,28102034,185157
OK,118,18,858,118,2014-10-01T07:25:00,5,28102482,185157
OK,109,19,858,109,2014-10-01T07:30:00,2,28102914,185157
OK,50,42,858,50,2014-10-01T07:35:00,1,28103356,185157
OK,50,42,858,50,2014-10-01T07:40:00,3,28103802,185157
OK,109,19,858,109,2014-10-01T07:45:00,3,28104246,185157
OK,95,22,858,95,2014-10-01T07:50:00,7,28104688,185157
OK,110,19,858,110,2014-10-01T07:55:00,2,28105132,185157
OK,124,17,858,124,2014-10-01T08:00:00,1,28105573,185157
OK,124,17,858,124,2014-10-01T08:05:00,1,28106021,185157
OK,127,16,858,127,2014-10-01T08:10:00,4,28106458,185157
OK,115,18,858,115,2014-10-01T08:15:00,14,28106866,185157
OK,108,19,858,108,2014-10-01T08:20:00,12,28107296,185157
OK,91,23,858,91,2014-10-01T08:25:00,1,28107745,185157
OK,108,19,858,108,2014-10-01T08:30:00,1,28108184,185157
OK,79,26,858,79,2014-10-01T08:35:00,5,28108633,185157
OK,76,27,858,76,2014-10-01T08:40:00,5,28109062,185157
OK,38,55,858,38,2014-10-01T08:45:00,2,28109510,185157
OK,66,32,858,66,2014-10-01T08:50:00,2,28109854,185157
OK,100,21,858,100,2014-10-01T08:55:00,6,28110302,185157
OK,149,14,858,149,2014-10-01T09:00:00,4,28110725,185157
OK,143,14,858,143,2014-10-01T09:05:00,5,28111174,185157
OK,118,18,858,118,2014-10-01T09:10:00,1,28111603,185157
OK,105,20,858,105,2014-10-01T09:15:00,2,28112052,185157
OK,113,18,858,113,2014-10-01T09:20:00,4,28112394,185157
OK,122,17,858,122,2014-10-01T09:25:00,3,28112842,185157
OK,113,18,858,113,2014-10-01T09:30:00,3,28113267,185157
OK,111,19,858,111,2014-10-01T09:35:00,2,28113715,185157
OK,111,19,858,111,2014-10-01T09:40:00,0,28114147,185157
OK,124,17,858,124,2014-10-01T09:45:00,1,28114596,185157
OK,124,17,858,124,2014-10-01T09:50:00,0,28114951,185157
OK,85,24,858,85,2014-10-01T09:55:00,3,28115399,185157
OK,121,17,858,121,2014-10-01T10:00:00,1,28115812,185157
OK,143,14,858,143,2014-10-01T10:05:00,2,28116260,185157
OK,123,17,858,123,2014-10-01T10:10:00,4,28116669,185157
OK,155,13,858,155,2014-10-01T10:15:00,5,28117117,185157
OK,212,10,858,212,2014-10-01T10:20:00,3,28117542,185157
OK,103,20,858,103,2014-10-01T10:25:00,1,28117991,185157
OK,103,20,858,103,2014-10-01T10:30:00,3,28118436,185157
OK,98,21,858,98,2014-10-01T10:35:00,3,28118883,185157
OK,73,29,858,73,2014-10-01T10:40:00,4,28119327,185157
OK,77,27,858,77,2014-10-01T10:45:00,4,28119775,185157
OK,74,28,858,74,2014-10-01T10:50:00,2,28120223,185157
OK,85,24,858,85,2014-10-01T10:55:00,4,28120672,185157
OK,123,17,858,123,2014-10-01T11:00:00,5,28121056,185157
OK,107,19,858,107,2014-10-01T11:05:00,2,28121504,185157
OK,88,24,858,88,2014-10-01T11:10:00,1,28121943,185157
OK,68,31,858,68,2014-10-01T11:15:00,2,28122391,185157
OK,127,16,858,127,2014-10-01T11:20:00,3,28122833,185157
OK,128,16,858,128,2014-10-01T11:25:00,4,28123281,185157
OK,153,13,858,153,2014-10-01T11:30:00,1,28123714,185157
OK,84,25,858,84,2014-10-01T11:35:00,2,28124162,185157
OK,89,23,858,89,2014-10-01T11:40:00,4,28124566,185157
OK,89,23,858,89,2014-10-01T11:45:00,2,28125013,185157
OK,142,14,858,142,2014-10-01T11:50:00,2,28125442,185157
OK,183,11,858,183,2014-10-01T11:55:00,5,28125891,185157
OK,201,10,858,201,2014-10-01T12:00:00,7,28126244,185157
OK,183,11,858,183,2014-10-01T12:05:00,10,28126692,185157
OK,137,15,858,137,2014-10-01T12:10:00,10,28127141,185157
OK,122,17,858,122,2014-10-01T12:15:00,7,28127590,185157
OK,113,18,858,113,2014-10-01T12:20:00,2,28128019,185157
OK,113,18,858,113,2014-10-01T12:25:00,0,28128467,185157
OK,113,18,858,113,2014-10-01T12:30:00,0,28128902,185157
OK,199,10,858,199,2014-10-01T12:35:00,3,28129351,185157
OK,180,11,858,180,2014-10-01T12:40:00,0,28129786,185157
OK,45,47,858,45,2014-10-01T12:45:00,1,28130234,185157
OK,87,24,858,87,2014-10-01T12:50:00,4,28130663,185157
OK,101,21,858,101,2014-10-01T12:55:00,3,28131111,185157
OK,276,7,858,276,2014-10-01T13:00:00,4,28131549,185157
OK,295,7,858,295,2014-10-01T13:05:00,5,28131997,185157
OK,142,14,858,142,2014-10-01T13:10:00,4,28132436,185157
OK,154,13,858,154,2014-10-01T13:15:00,4,28132882,185157
OK,131,16,858,131,2014-10-01T13:20:00,2,28133320,185157
OK,210,10,858,210,2014-10-01T13:25:00,4,28133769,185157
OK,215,9,858,215,2014-10-01T13:30:00,3,28134208,185157
OK,181,11,858,181,2014-10-01T13:35:00,6,28134657,185157
OK,180,11,858,180,2014-10-01T13:40:00,5,28135077,185157
OK,149,14,858,149,2014-10-01T13:45:00,3,28135525,185157
OK,126,16,858,126,2014-10-01T13:50:00,2,28135962,185157
OK,144,14,858,144,2014-10-01T13:55:00,2,28136411,185157
OK,132,16,858,132,2014-10-01T14:00:00,3,28136851,185157
OK,132,16,858,132,2014-10-01T14:05:00,1,28137300,185157
OK,127,16,858,127,2014-10-01T14:10:00,2,28137734,185157
OK,126,16,858,126,2014-10-01T14:15:00,2,28138183,185157
OK,130,16,858,130,2014-10-01T14:20:00,3,28138612,185157
OK,88,24,858,88,2014-10-01T14:25:00,3,28139060,185157
OK,88,24,858,88,2014-10-01T14:30:00,3,28139472,185157
OK,57,37,858,57,2014-10-01T14:35:00,2,28139920,185157
OK,53,40,858,53,2014-10-01T14:40:00,1,28140363,185157
OK,113,18,858,113,2014-10-01T14:45:00,2,28140811,185157
OK,80,26,858,80,2014-10-01T14:50:00,3,28141238,185157
OK,64,33,858,64,2014-10-01T14:55:00,2,28141686,185157
OK,87,24,858,87,2014-10-01T15:00:00,1,28142115,185157
OK,129,16,858,129,2014-10-01T15:05:00,1,28142563,185157
OK,103,20,858,103,2014-10-01T15:10:00,2,28142991,185157
OK,78,27,858,78,2014-10-01T15:15:00,1,28143439,185157
OK,85,24,858,85,2014-10-01T15:20:00,1,28143887,185157
OK,69,30,858,69,2014-10-01T15:25:00,2,28144336,185157
OK,69,30,858,69,2014-10-01T15:30:00,2,28144759,185157
OK,92,23,858,92,2014-10-01T15:35:00,0,28145171,185157
OK,67,31,858,67,2014-10-01T15:40:00,2,28145620,185157
OK,97,21,858,97,2014-10-01T15:45:00,6,28146069,185157
OK,94,22,858,94,2014-10-01T15:50:00,5,28146518,185157
OK,85,24,858,85,2014-10-01T15:55:00,2,28146929,185157
OK,80,26,858,80,2014-10-01T16:00:00,1,28147370,185157
OK,80,26,858,80,2014-10-01T16:05:00,0,28147819,185157
OK,80,26,858,80,2014-10-01T16:10:00,0,28148221,185157
OK,80,26,858,80,2014-10-01T16:15:00,0,28148669,185157
OK,80,26,858,80,2014-10-01T16:20:00,0,28149109,185157
OK,44,48,858,44,2014-10-01T16:25:00,1,28149557,185157
OK,44,48,858,44,2014-10-01T16:30:00,1,28149984,185157
OK,44,48,858,44,2014-10-01T16:35:00,0,28150432,185157
OK,51,41,858,51,2014-10-01T16:40:00,1,28150851,185157
OK,93,22,858,93,2014-10-01T16:45:00,2,28151299,185157
OK,136,15,858,136,2014-10-01T16:50:00,0,28151748,185157
OK,50,42,858,50,2014-10-01T17:00:00,1,28152197,185157
OK,145,14,858,145,2014-10-01T17:05:00,1,28152643,185157
OK,60,35,858,60,2014-10-01T17:10:00,2,28153090,185157
OK,74,28,858,74,2014-10-01T17:15:00,1,28153539,185157
OK,115,18,858,115,2014-10-01T17:20:00,1,28153951,185157
OK,115,18,858,115,2014-10-01T17:25:00,1,28154398,185157
OK,209,10,858,209,2014-10-01T17:30:00,2,28154840,185157
OK,229,9,858,229,2014-10-01T17:35:00,1,28155288,185157
OK,108,19,858,108,2014-10-01T17:40:00,1,28155708,185157
OK,101,21,858,101,2014-10-01T17:45:00,6,28156155,185157
OK,94,22,858,94,2014-10-01T17:50:00,5,28156604,185157
OK,236,9,858,236,2014-10-01T17:55:00,2,28157042,185157
OK,236,9,858,236,2014-10-01T18:00:00,3,28157473,185157
OK,78,27,858,78,2014-10-01T18:05:00,2,28157920,185157
OK,47,45,858,47,2014-10-01T18:10:00,1,28158364,185157
OK,47,45,858,47,2014-10-01T18:15:00,0,28158810,185157
OK,47,45,858,47,2014-10-01T18:20:00,0,28159256,185157
OK,47,45,858,47,2014-10-01T18:25:00,0,28159592,185157
OK,222,9,858,222,2014-10-01T18:30:00,3,28160040,185157
OK,222,9,858,222,2014-10-01T18:35:00,3,28160489,185157
OK,272,7,858,272,2014-10-01T18:40:00,2,28160928,185157
OK,271,7,858,271,2014-10-01T18:45:00,3,28161376,185157
OK,224,9,858,224,2014-10-01T18:50:00,3,28161793,185157
OK,87,24,858,87,2014-10-01T18:55:00,4,28162242,185157
OK,62,34,858,62,2014-10-01T19:00:00,2,28162642,185157
OK,90,23,858,90,2014-10-01T19:05:00,1,28163075,185157
OK,90,23,858,90,2014-10-01T19:10:00,1,28163523,185157
OK,110,19,858,110,2014-10-01T19:15:00,1,28163972,185157
OK,136,15,858,136,2014-10-01T19:20:00,2,28164404,185157
OK,103,20,858,103,2014-10-01T19:25:00,3,28164852,185157
OK,77,27,858,77,2014-10-01T19:30:00,2,28165278,185157
OK,51,41,858,51,2014-10-01T19:35:00,0,28165725,185157
OK,236,9,858,236,2014-10-01T19:40:00,1,28166166,185157
OK,236,9,858,236,2014-10-01T19:45:00,1,28166528,185157
OK,82,25,858,82,2014-10-01T19:50:00,1,28166977,185157
OK,164,12,858,164,2014-10-01T19:55:00,2,28167406,185157
OK,164,12,858,164,2014-10-01T20:00:00,2,28167840,185157
OK,112,18,858,112,2014-10-01T20:05:00,1,28168288,185157
OK,175,12,858,175,2014-10-01T20:10:00,2,28168733,185157
OK,168,12,858,168,2014-10-01T20:15:00,3,28169182,185157
OK,113,18,858,113,2014-10-01T20:20:00,2,28169630,185157
OK,59,36,858,59,2014-10-01T20:25:00,0,28170056,185157
OK,122,17,858,122,2014-10-01T20:30:00,1,28170501,185157
OK,122,17,858,122,2014-10-01T20:35:00,1,28170949,185157
OK,122,17,858,122,2014-10-01T20:40:00,0,28171386,185157
OK,122,17,858,122,2014-10-01T20:45:00,0,28171832,185157
OK,224,9,858,224,2014-10-01T20:50:00,1,28172280,185157
OK,224,9,858,224,2014-10-01T20:55:00,1,28172726,185157
OK,224,9,858,224,2014-10-01T21:00:00,0,28173172,185157
OK,224,9,858,224,2014-10-01T21:05:00,0,28173621,185157
OK,224,9,858,224,2014-10-01T21:10:00,0,28174062,185157
OK,224,9,858,224,2014-10-01T21:15:00,0,28174511,185157
OK,224,9,858,224,2014-10-01T21:20:00,0,28174937,185157
OK,224,9,858,224,2014-10-01T21:25:00,0,28175333,185157
OK,224,9,858,224,2014-10-01T21:30:00,0,28175782,185157
OK,224,9,858,224,2014-10-01T21:35:00,0,28176231,185157
OK,224,9,858,224,2014-10-01T21:40:00,0,28176680,185157
OK,224,9,858,224,2014-10-01T21:45:00,0,28177041,185157
OK,224,9,858,224,2014-10-01T21:50:00,0,28177476,185157
OK,72,29,858,72,2014-10-01T21:55:00,1,28177922,185157
OK,72,29,858,72,2014-10-01T22:00:00,0,28178371,185157
OK,72,29,858,72,2014-10-01T22:05:00,0,28178818,185157
OK,73,29,858,73,2014-10-01T22:10:00,1,28179253,185157
OK,73,29,858,73,2014-10-01T22:15:00,1,28179695,185157
OK,73,29,858,73,2014-10-01T22:20:00,0,28180142,185157
OK,73,29,858,73,2014-10-01T22:25:00,0,28180540,185157
OK,73,29,858,73,2014-10-01T22:30:00,0,28180989,185157
OK,73,29,858,73,2014-10-01T22:35:00,0,28181413,185157
OK,73,29,858,73,2014-10-01T22:40:00,0,28181861,185157
OK,73,29,858,73,2014-10-01T22:45:00,0,28182308,185157
OK,73,29,858,73,2014-10-01T22:50:00,0,28182757,185157
OK,73,29,858,73,2014-10-01T22:55:00,0,28183174,185157
OK,73,29,858,73,2014-10-01T23:00:00,0,28183607,185157
OK,73,29,858,73,2014-10-01T23:05:00,0,28184052,185157
OK,73,29,858,73,2014-10-01T23:10:00,0,28184501,185157
OK,73,29,858,73,2014-10-01T23:15:00,0,28184936,185157
OK,73,29,858,73,2014-10-01T23:20:00,0,28185384,185157
OK,73,29,858,73,2014-10-01T23:25:00,0,28185815,185157
OK,73,29,858,73,2014-10-01T23:30:00,0,28186207,185157
OK,73,29,858,73,2014-10-01T23:40:00,0,28187054,185157
OK,73,29,858,73,2014-10-01T23:55:00,0,28188386,185157
OK,73,29,858,73,2014-10-02T00:00:00,0,28188822,185157
OK,73,29,858,73,2014-10-02T00:05:00,0,28189271,185157
OK,73,29,858,73,2014-10-02T00:10:00,0,28189694,185157
OK,73,29,858,73,2014-10-02T00:15:00,0,28190142,185157
OK,73,29,858,73,2014-10-02T00:20:00,0,28190496,185157
OK,73,29,858,73,2014-10-02T00:25:00,0,28190944,185157
OK,73,29,858,73,2014-10-02T00:30:00,0,28191393,185157
OK,119,17,858,119,2014-10-02T00:35:00,1,28191700,185157
OK,119,17,858,119,2014-10-02T00:40:00,0,28192148,185157
OK,35,60,858,35,2014-10-02T00:45:00,0,28192581,185157
OK,35,60,858,35,2014-10-02T00:50:00,0,28193025,185157
OK,35,60,858,35,2014-10-02T00:55:00,0,28193392,185157
OK,35,60,858,35,2014-10-02T01:05:00,0,28194290,185157
OK,35,60,858,35,2014-10-02T01:15:00,0,28194739,185157
OK,35,60,858,35,2014-10-02T01:20:00,0,28195424,185157
OK,35,60,858,35,2014-10-02T01:30:00,0,28195873,185157
OK,35,60,858,35,2014-10-02T01:35:00,0,28196606,185157
OK,35,60,858,35,2014-10-02T01:40:00,0,28197030,185157
OK,35,60,858,35,2014-10-02T01:45:00,0,28197478,185157
OK,35,60,858,35,2014-10-02T01:50:00,0,28197926,185157
OK,35,60,858,35,2014-10-02T01:55:00,0,28198374,185157
OK,35,60,858,35,2014-10-02T02:00:00,0,28198823,185157
OK,35,60,858,35,2014-10-02T02:05:00,0,28199202,185157
OK,35,60,858,35,2014-10-02T02:10:00,0,28199637,185157
OK,35,60,858,35,2014-10-02T02:15:00,0,28200079,185157
OK,35,60,858,35,2014-10-02T02:20:00,0,28200522,185157
OK,35,60,858,35,2014-10-02T02:25:00,0,28200971,185157
OK,35,60,858,35,2014-10-02T02:30:00,0,28201402,185157
OK,35,60,858,35,2014-10-02T02:45:00,0,28202300,185157
OK,35,60,858,35,2014-10-02T02:50:00,0,28202742,185157
OK,35,60,858,35,2014-10-02T02:55:00,0,28203190,185157
OK,35,60,858,35,2014-10-02T03:00:00,0,28203625,185157
OK,35,60,858,35,2014-10-02T03:10:00,0,28204074,185157
OK,35,60,858,35,2014-10-02T03:25:00,0,28204523,185157
OK,35,60,858,35,2014-10-02T03:30:00,0,28204972,185157
OK,35,60,858,35,2014-10-02T03:35:00,0,28205401,185157
OK,35,60,858,35,2014-10-02T03:40:00,0,28205847,185157
OK,35,60,858,35,2014-10-02T03:45:00,0,28206230,185157
OK,35,60,858,35,2014-10-02T03:55:00,0,28207128,185157
OK,35,60,858,35,2014-10-02T04:00:00,0,28207549,185157
OK,35,60,858,35,2014-10-02T04:05:00,0,28207996,185157
OK,35,60,858,35,2014-10-02T04:15:00,0,28208872,185157
OK,58,36,858,58,2014-10-02T04:20:00,1,28209310,185157
OK,58,36,858,58,2014-10-02T04:25:00,0,28209759,185157
OK,39,54,858,39,2014-10-02T04:30:00,1,28210182,185157
OK,39,54,858,39,2014-10-02T04:35:00,0,28210631,185157
OK,594,3,858,594,2014-10-02T04:40:00,2,28211057,185157
OK,39,54,858,39,2014-10-02T04:45:00,0,28211500,185157
OK,39,54,858,39,2014-10-02T04:50:00,0,28211878,185157
OK,120,17,858,120,2014-10-02T04:55:00,1,28212327,185157
OK,120,17,858,120,2014-10-02T05:00:00,0,28212756,185157
OK,120,17,858,120,2014-10-02T05:05:00,0,28213205,185157
OK,120,17,858,120,2014-10-02T05:10:00,0,28213643,185157
OK,143,14,858,143,2014-10-02T05:15:00,2,28214092,185157
OK,121,17,858,121,2014-10-02T05:20:00,0,28214507,185157
OK,89,23,858,89,2014-10-02T05:25:00,1,28214954,185157
OK,89,23,858,89,2014-10-02T05:30:00,0,28215371,185157
OK,107,19,858,107,2014-10-02T05:40:00,2,28215819,185157
OK,94,22,858,94,2014-10-02T05:45:00,1,28216598,185157
OK,94,22,858,94,2014-10-02T05:50:00,0,28217045,185157
OK,105,20,858,105,2014-10-02T05:55:00,7,28217494,185157
OK,100,21,858,100,2014-10-02T06:00:00,7,28217933,185157
OK,108,19,858,108,2014-10-02T06:05:00,5,28218382,185157
OK,127,16,858,127,2014-10-02T06:10:00,1,28218802,185157
OK,127,16,858,127,2014-10-02T06:15:00,0,28219251,185157
OK,112,18,858,112,2014-10-02T06:20:00,2,28219625,185157
OK,112,18,858,112,2014-10-02T06:25:00,2,28220073,185157
OK,100,21,858,100,2014-10-02T06:30:00,1,28220508,185157
OK,112,18,858,112,2014-10-02T06:35:00,2,28220956,185157
OK,110,19,858,110,2014-10-02T06:40:00,2,28221344,185157
OK,97,21,858,97,2014-10-02T06:45:00,3,28221623,185157
OK,74,28,858,74,2014-10-02T07:00:00,6,28222217,185157
OK,50,42,858,50,2014-10-02T07:05:00,5,28222666,185157
OK,128,16,858,128,2014-10-02T07:10:00,1,28223098,185157
OK,128,16,858,128,2014-10-02T07:15:00,1,28223533,185157
OK,128,16,858,128,2014-10-02T07:20:00,0,28223980,185157
OK,89,23,858,89,2014-10-02T07:25:00,7,28224335,185157
OK,99,21,858,99,2014-10-02T07:30:00,0,28224784,185157
OK,99,21,858,99,2014-10-02T07:35:00,0,28225233,185157
OK,99,21,858,99,2014-10-02T07:40:00,0,28225557,185157
OK,63,33,858,63,2014-10-02T07:50:00,2,28226445,185157
OK,92,23,858,92,2014-10-02T07:55:00,4,28226894,185157
OK,117,18,858,117,2014-10-02T08:00:00,2,28227310,185157
OK,87,24,858,87,2014-10-02T08:05:00,2,28227758,185157
OK,100,21,858,100,2014-10-02T08:10:00,1,28228118,185157
OK,47,45,858,47,2014-10-02T08:15:00,1,28228566,185157
OK,47,45,858,47,2014-10-02T08:20:00,0,28228977,185157
OK,47,45,858,47,2014-10-02T08:25:00,0,28229425,185157
OK,47,45,858,47,2014-10-02T08:30:00,0,28229776,185157
OK,67,31,858,67,2014-10-02T08:35:00,3,28230224,185157
OK,67,31,858,67,2014-10-02T08:40:00,1,28230595,185157
OK,67,31,858,67,2014-10-02T08:45:00,0,28231039,185157
OK,77,27,858,77,2014-10-02T08:50:00,2,28231462,185157
OK,45,47,858,45,2014-10-02T08:55:00,0,28231911,185157
OK,48,44,858,48,2014-10-02T09:00:00,4,28232254,185157
OK,84,25,858,84,2014-10-02T09:10:00,0,28232702,185157
OK,72,29,858,72,2014-10-02T09:15:00,2,28233151,185157
OK,45,47,858,45,2014-10-02T09:20:00,0,28233575,185157
OK,75,28,858,75,2014-10-02T09:25:00,2,28234024,185157
OK,90,23,858,90,2014-10-02T09:30:00,1,28234358,185157
OK,132,16,858,132,2014-10-02T09:35:00,1,28234806,185157
OK,132,16,858,132,2014-10-02T09:40:00,0,28235233,185157
OK,116,18,858,116,2014-10-02T09:45:00,3,28235682,185157
OK,59,36,858,59,2014-10-02T09:50:00,1,28236126,185157
OK,108,19,858,108,2014-10-02T09:55:00,2,28236572,185157
OK,108,19,858,108,2014-10-02T10:00:00,0,28236975,185157
OK,108,19,858,108,2014-10-02T10:05:00,0,28237423,185157
OK,129,16,858,129,2014-10-02T10:10:00,3,28237871,185157
OK,143,14,858,143,2014-10-02T10:15:00,0,28238319,185157
OK,66,32,858,66,2014-10-02T10:20:00,1,28238759,185157
OK,66,32,858,66,2014-10-02T10:25:00,1,28239208,185157
OK,66,32,858,66,2014-10-02T10:30:00,0,28239639,185157
OK,113,18,858,113,2014-10-02T10:35:00,2,28240087,185157
OK,112,18,858,112,2014-10-02T10:40:00,3,28240532,185157
OK,116,18,858,116,2014-10-02T10:45:00,2,28240980,185157
OK,116,18,858,116,2014-10-02T10:50:00,0,28241413,185157
OK,47,45,858,47,2014-10-02T10:55:00,1,28241860,185157
OK,47,45,858,47,2014-10-02T11:00:00,1,28242257,185157
OK,47,45,858,47,2014-10-02T11:05:00,0,28242705,185157
OK,47,45,858,47,2014-10-02T11:15:00,0,28243154,185157
OK,110,19,858,110,2014-10-02T11:20:00,2,28243917,185157
OK,106,20,858,106,2014-10-02T11:25:00,1,28244347,185157
OK,106,20,858,106,2014-10-02T11:30:00,0,28244795,185157
OK,86,24,858,86,2014-10-02T11:35:00,5,28245244,185157
OK,50,42,858,50,2014-10-02T11:40:00,1,28245651,185157
OK,50,42,858,50,2014-10-02T11:45:00,0,28246099,185157
OK,98,21,858,98,2014-10-02T11:50:00,1,28246536,185157
OK,116,18,858,116,2014-10-02T11:55:00,3,28246985,185157
OK,116,18,858,116,2014-10-02T12:00:00,3,28247431,185157
OK,132,16,858,132,2014-10-02T12:05:00,0,28247862,185157
OK,132,16,858,132,2014-10-02T12:10:00,0,28248310,185157
OK,141,15,858,141,2014-10-02T12:15:00,3,28248758,185157
OK,141,15,858,141,2014-10-02T12:20:00,3,28249185,185157
OK,217,9,858,217,2014-10-02T12:25:00,5,28249629,185157
OK,245,8,858,245,2014-10-02T12:30:00,3,28250048,185157
OK,118,18,858,118,2014-10-02T12:35:00,3,28250446,185157
OK,107,19,858,107,2014-10-02T12:45:00,4,28251226,185157
OK,117,18,858,117,2014-10-02T13:20:00,4,28251771,185157
OK,202,10,858,202,2014-10-02T13:30:00,3,28252355,185157
OK,199,10,858,199,2014-10-02T13:35:00,1,28252797,185157
OK,199,10,858,199,2014-10-02T13:40:00,0,28253214,185157
OK,176,12,858,176,2014-10-02T13:45:00,2,28253663,185157
OK,207,10,858,207,2014-10-02T13:50:00,1,28254069,185157
OK,194,10,858,194,2014-10-02T13:55:00,1,28254389,185157
OK,177,12,858,177,2014-10-02T14:10:00,4,28254966,185157
OK,167,12,858,167,2014-10-02T14:15:00,6,28255415,185157
OK,133,15,858,133,2014-10-02T14:20:00,3,28255843,185157
OK,131,16,858,131,2014-10-02T14:25:00,0,28256292,185157
OK,174,12,858,174,2014-10-02T14:30:00,4,28256720,185157
OK,196,10,858,196,2014-10-02T14:35:00,3,28257169,185157
OK,283,7,858,283,2014-10-02T14:40:00,0,28257610,185157
OK,194,10,858,194,2014-10-02T14:45:00,2,28258058,185157
OK,88,24,858,88,2014-10-02T14:50:00,2,28258491,185157
OK,86,24,858,86,2014-10-02T14:55:00,1,28258937,185157
OK,86,24,858,86,2014-10-02T15:00:00,0,28259386,185157
OK,38,55,858,38,2014-10-02T15:05:00,1,28259833,185157
OK,75,28,858,75,2014-10-02T15:10:00,2,28260266,185157
OK,75,28,858,75,2014-10-02T15:15:00,2,28260715,185157
OK,75,28,858,75,2014-10-02T15:20:00,0,28261155,185157
OK,149,14,858,149,2014-10-02T15:25:00,2,28261537,185157
OK,118,18,858,118,2014-10-02T15:30:00,1,28261967,185157
OK,95,22,858,95,2014-10-02T15:35:00,2,28262414,185157
OK,48,44,858,48,2014-10-02T15:40:00,1,28262860,185157
OK,63,33,858,63,2014-10-02T15:45:00,2,28263298,185157
OK,63,33,858,63,2014-10-02T15:50:00,2,28263739,185157
OK,63,33,858,63,2014-10-02T15:55:00,0,28264141,185157